Location: La Tine
(46.4708°N, 7.0525°E)
Time: 00:04:51
(UTC+00:00)

Cosmos 1833 Rocket - Pass Details

Date: 23 January 2021
Orbit: 833 x 839 km, 71.0° (Epoch: 03 March)

Event Time Altitude Azimuth Distance (km) Brightness Sun altitude
Rises 16:57:38 0° 341° (NNW) 3,391 5.8 -6.3°
Reaches altitude 10° 17:01:06 10° 2° (N) 2,454 4.9 -6.8°
Maximum altitude 17:04:31 16° 40° (NE) 2,048 4.2 -7.4°
Drops below altitude 10° 17:07:56 10° 78° (ENE) 2,449 4.4 -7.9°
Enters shadow 17:08:15 - 80° (E) 2,518 4.5 -8.0°
